owner,sensor,date,latitude,longitude,vertical_datum,wind_speed,wind_to_direction,wind_speed_of_gust,qcFlag 
NDBC,ioos:station:NOAA.NDBC:FWYF1:1,2017-09-01T00:00:00Z,25.5910,-80.0970,43.9,3.6,90.0,4.1,'1111122,1111122,1111122' 
NDBC,ioos:station:NOAA.NDBC:FWYF1:1,2017-09-01T01:00:00Z,25.5910,-80.0970,43.9,5.1,110.0,5.7,'1111122,1111122,1111122' 
NDBC,ioos:station:NOAA.NDBC:FWYF1:1,2017-09-01T02:00:00Z,25.5910,-80.0970,43.9,3.6,100.0,4.1,'1111122,1111122,1111122' 
NDBC,ioos:station:NOAA.NDBC:FWYF1:1,2017-09-01T03:00:00Z,25.5910,-80.0970,43.9,3.1,100.0,3.6,'1111122,1111122,1111122' 
NDBC,ioos:station:NOAA.NDBC:FWYF1:1,2017-09-01T04:00:00Z,25.5910,-80.0970,43.9,3.6,80.0,3.6,'1111122,1111122,1111122' 
NDBC,ioos:station:NOAA.NDBC:FWYF1:1,2017-09-01T05:00:00Z,25.5910,-80.0970,43.9,5.1,90.0,6.2,'1111122,1111122,1111122' 
NDBC,ioos:station:NOAA.NDBC:FWYF1:1,2017-09-01T06:00:00Z,25.5910,-80.0970,43.9,5.1,100.0,5.7,'1111122,1111122,1111122' 
NDBC,ioos:station:NOAA.NDBC:FWYF1:1,2017-09-01T07:00:00Z,25.5910,-80.0970,43.9,5.1,70.0,5.7,'1111122,1111122,1111122' 
NDBC,ioos:station:NOAA.NDBC:FWYF1:1,2017-09-01T08:00:00Z,25.5910,-80.0970,43.9,6.2,90.0,6.7,'1111122,1111122,1111122' 
NDBC,ioos:station:NOAA.NDBC:FWYF1:1,2017-09-01T09:00:00Z,25.5910,-80.0970,43.9,6.2,110.0,6.7,'1111122,1111122,1111122' 
NDBC,ioos:station:NOAA.NDBC:FWYF1:1,2017-09-01T10:00:00Z,25.5910,-80.0970,43.9,5.7,100.0,6.2,'1111122,1111122,1111122' 
NDBC,ioos:station:NOAA.NDBC:FWYF1:1,2017-09-01T11:00:00Z,25.5910,-80.0970,43.9,4.6,100.0,4.6,'1111122,1111122,1111122' 
NDBC,ioos:station:NOAA.NDBC:FWYF1:1,2017-09-01T12:00:00Z,25.5910,-80.0970,43.9,5.1,100.0,5.1,'1111122,1111122,1111122' 
NDBC,ioos:station:NOAA.NDBC:FWYF1:1,2017-09-01T13:00:00Z,25.5910,-80.0970,43.9,4.6,90.0,5.1,'1111122,1111122,1111122' 
NDBC,ioos:station:NOAA.NDBC:FWYF1:1,2017-09-01T14:00:00Z,25.5910,-80.0970,43.9,5.1,100.0,5.7,'1111122,1111122,1111122' 
NDBC,ioos:station:NOAA.NDBC:FWYF1:1,2017-09-01T15:00:00Z,25.5910,-80.0970,43.9,5.7,110.0,5.7,'1111122,1111122,1111122' 
NDBC,ioos:station:NOAA.NDBC:FWYF1:1,2017-09-01T16:00:00Z,25.5910,-80.0970,43.9,6.2,130.0,6.7,'1111122,1111122,1111122' 
NDBC,ioos:station:NOAA.NDBC:FWYF1:1,2017-09-01T17:00:00Z,25.5910,-80.0970,43.9,5.7,140.0,6.2,'1111122,1111122,1111122' 
NDBC,ioos:station:NOAA.NDBC:FWYF1:1,2017-09-01T18:00:00Z,25.5910,-80.0970,43.9,5.1,130.0,5.1,'1111122,1111122,1111122' 
NDBC,ioos:station:NOAA.NDBC:FWYF1:1,2017-09-01T19:00:00Z,25.5910,-80.0970,43.9,5.7,110.0,6.2,'1111122,1111122,1111122' 
NDBC,ioos:station:NOAA.NDBC:FWYF1:1,2017-09-01T20:00:00Z,25.5910,-80.0970,43.9,5.1,150.0,5.7,'1111122,1111122,1111122' 
NDBC,ioos:station:NOAA.NDBC:FWYF1:1,2017-09-01T21:00:00Z,25.5910,-80.0970,43.9,5.7,120.0,6.2,'1111122,1111122,1111122' 
NDBC,ioos:station:NOAA.NDBC:FWYF1:1,2017-09-01T22:00:00Z,25.5910,-80.0970,43.9,5.7,140.0,6.2,'1111122,1111122,1111122' 
NDBC,ioos:station:NOAA.NDBC:FWYF1:1,2017-09-02T00:00:00Z,25.5910,-80.0970,43.9,3.6,160.0,4.1,'1111122,1111122,1111122' 
NDBC,ioos:station:NOAA.NDBC:FWYF1:1,2017-09-02T01:00:00Z,25.5910,-80.0970,43.9,6.2,170.0,6.7,'1111122,1111122,1111122' 
NDBC,ioos:station:NOAA.NDBC:FWYF1:1,2017-09-02T02:00:00Z,25.5910,-80.0970,43.9,5.7,180.0,6.2,'1111122,1111122,1111122' 
NDBC,ioos:station:NOAA.NDBC:FWYF1:1,2017-09-02T03:00:00Z,25.5910,-80.0970,43.9,4.6,190.0,5.1,'1111122,1111122,1111122' 
NDBC,ioos:station:NOAA.NDBC:FWYF1:1,2017-09-02T04:00:00Z,25.5910,-80.0970,43.9,4.6,160.0,5.1,'1111122,1111122,1111122' 
NDBC,ioos:station:NOAA.NDBC:FWYF1:1,2017-09-02T05:00:00Z,25.5910,-80.0970,43.9,4.6,160.0,5.1,'1111122,1111122,1111122' 
NDBC,ioos:station:NOAA.NDBC:FWYF1:1,2017-09-02T06:00:00Z,25.5910,-80.0970,43.9,5.1,180.0,5.7,'1111122,1111122,1111122' 
NDBC,ioos:station:NOAA.NDBC:FWYF1:1,2017-09-02T07:00:00Z,25.5910,-80.0970,43.9,5.7,180.0,6.2,'1111122,1111122,1111122' 
NDBC,ioos:station:NOAA.NDBC:FWYF1:1,2017-09-02T08:00:00Z,25.5910,-80.0970,43.9,3.6,330.0,4.6,'1111122,1111122,1111122' 
NDBC,ioos:station:NOAA.NDBC:FWYF1:1,2017-09-02T09:00:00Z,25.5910,-80.0970,43.9,3.6,330.0,3.6,'1111122,1111122,1111122' 
NDBC,ioos:station:NOAA.NDBC:FWYF1:1,2017-09-02T10:00:00Z,25.5910,-80.0970,43.9,3.1,30.0,3.6,'1111122,1111122,1111122' 
NDBC,ioos:station:NOAA.NDBC:FWYF1:1,2017-09-02T11:00:00Z,25.5910,-80.0970,43.9,6.2,100.0,6.7,'1111122,1111122,1111122' 
NDBC,ioos:station:NOAA.NDBC:FWYF1:1,2017-09-02T12:00:00Z,25.5910,-80.0970,43.9,8.8,90.0,9.3,'1111122,1111122,1111122' 
NDBC,ioos:station:NOAA.NDBC:FWYF1:1,2017-09-02T13:00:00Z,25.5910,-80.0970,43.9,6.7,80.0,7.7,'1111122,1111122,1111122' 
NDBC,ioos:station:NOAA.NDBC:FWYF1:1,2017-09-02T14:00:00Z,25.5910,-80.0970,43.9,7.2,300.0,8.2,'1111122,1111122,1111122' 
NDBC,ioos:station:NOAA.NDBC:FWYF1:1,2017-09-02T15:00:00Z,25.5910,-80.0970,43.9,2.1,320.0,2.6,'1111122,1111122,1111122' 
NDBC,ioos:station:NOAA.NDBC:FWYF1:1,2017-09-02T16:00:00Z,25.5910,-80.0970,43.9,2.6,90.0,3.1,'1111122,1111122,1111122' 
NDBC,ioos:station:NOAA.NDBC:FWYF1:1,2017-09-02T17:00:00Z,25.5910,-80.0970,43.9,4.6,130.0,5.1,'1111122,1111122,1111122' 
NDBC,ioos:station:NOAA.NDBC:FWYF1:1,2017-09-02T18:00:00Z,25.5910,-80.0970,43.9,5.1,150.0,5.7,'1111122,1111122,1111122' 
NDBC,ioos:station:NOAA.NDBC:FWYF1:1,2017-09-02T19:00:00Z,25.5910,-80.0970,43.9,4.6,140.0,5.1,'1111122,1111122,1111122' 
NDBC,ioos:station:NOAA.NDBC:FWYF1:1,2017-09-02T20:00:00Z,25.5910,-80.0970,43.9,4.1,150.0,5.1,'1111122,1111122,1111122' 
NDBC,ioos:station:NOAA.NDBC:FWYF1:1,2017-09-02T21:00:00Z,25.5910,-80.0970,43.9,4.6,170.0,4.6,'1111122,1111122,1111122' 
NDBC,ioos:station:NOAA.NDBC:FWYF1:1,2017-09-02T22:00:00Z,25.5910,-80.0970,43.9,3.6,190.0,4.1,'1111122,1111122,1111122' 
NDBC,ioos:station:NOAA.NDBC:FWYF1:1,2017-09-02T23:00:00Z,25.5910,-80.0970,43.9,2.1,200.0,2.6,'1111122,1111122,1111122' 
NDBC,ioos:station:NOAA.NDBC:FWYF1:1,2017-09-03T00:00:00Z,25.5910,-80.0970,43.9,2.6,150.0,2.6,'1111122,1111122,1111122' 
NDBC,ioos:station:NOAA.NDBC:FWYF1:1,2017-09-03T01:00:00Z,25.5910,-80.0970,43.9,1.0,210.0,1.5,'1111122,1111122,1111122' 
NDBC,ioos:station:NOAA.NDBC:FWYF1:1,2017-09-03T02:00:00Z,25.5910,-80.0970,43.9,1.5,160.0,2.1,'1111122,1111122,1111122' 
NDBC,ioos:station:NOAA.NDBC:FWYF1:1,2017-09-03T03:00:00Z,25.5910,-80.0970,43.9,2.1,130.0,2.1,'1111122,1111122,1111122' 
NDBC,ioos:station:NOAA.NDBC:FWYF1:1,2017-09-03T04:00:00Z,25.5910,-80.0970,43.9,2.6,100.0,3.1,'1111122,1111122,1111122' 
NDBC,ioos:station:NOAA.NDBC:FWYF1:1,2017-09-03T05:00:00Z,25.5910,-80.0970,43.9,2.6,80.0,2.6,'1111122,1111122,1111122' 
NDBC,ioos:station:NOAA.NDBC:FWYF1:1,2017-09-03T06:00:00Z,25.5910,-80.0970,43.9,2.6,90.0,3.1,'1111122,1111122,1111122' 
NDBC,ioos:station:NOAA.NDBC:FWYF1:1,2017-09-03T07:00:00Z,25.5910,-80.0970,43.9,2.6,100.0,3.1,'1111122,1111122,1111122' 
NDBC,ioos:station:NOAA.NDBC:FWYF1:1,2017-09-03T08:00:00Z,25.5910,-80.0970,43.9,2.6,110.0,3.1,'1111122,1111122,1111122' 
NDBC,ioos:station:NOAA.NDBC:FWYF1:1,2017-09-03T09:00:00Z,25.5910,-80.0970,43.9,3.1,100.0,3.6,'1111122,1111122,1111122' 
NDBC,ioos:station:NOAA.NDBC:FWYF1:1,2017-09-03T10:00:00Z,25.5910,-80.0970,43.9,3.1,70.0,3.6,'1111122,1111122,1111122' 
NDBC,ioos:station:NOAA.NDBC:FWYF1:1,2017-09-03T11:00:00Z,25.5910,-80.0970,43.9,1.5,60.0,2.1,'1111122,1111122,1111122' 
NDBC,ioos:station:NOAA.NDBC:FWYF1:1,2017-09-03T12:00:00Z,25.5910,-80.0970,43.9,2.1,30.0,2.1,'1111122,1111122,1111122' 
NDBC,ioos:station:NOAA.NDBC:FWYF1:1,2017-09-03T13:00:00Z,25.5910,-80.0970,43.9,2.6,360.0,2.6,'1111122,1111122,1111122' 
NDBC,ioos:station:NOAA.NDBC:FWYF1:1,2017-09-03T14:00:00Z,25.5910,-80.0970,43.9,4.1,360.0,4.6,'1111122,1111122,1111122' 
NDBC,ioos:station:NOAA.NDBC:FWYF1:1,2017-09-03T15:00:00Z,25.5910,-80.0970,43.9,3.1,50.0,3.6,'1111122,1111122,1111122' 
NDBC,ioos:station:NOAA.NDBC:FWYF1:1,2017-09-03T16:00:00Z,25.5910,-80.0970,43.9,2.1,60.0,2.6,'1111122,1111122,1111122' 
NDBC,ioos:station:NOAA.NDBC:FWYF1:1,2017-09-03T17:00:00Z,25.5910,-80.0970,43.9,2.6,60.0,3.1,'1111122,1111122,1111122' 
NDBC,ioos:station:NOAA.NDBC:FWYF1:1,2017-09-03T18:00:00Z,25.5910,-80.0970,43.9,3.1,50.0,3.6,'1111122,1111122,1111122' 
NDBC,ioos:station:NOAA.NDBC:FWYF1:1,2017-09-03T19:00:00Z,25.5910,-80.0970,43.9,3.6,70.0,4.1,'1111122,1111122,1111122' 
NDBC,ioos:station:NOAA.NDBC:FWYF1:1,2017-09-03T20:00:00Z,25.5910,-80.0970,43.9,5.1,70.0,5.7,'1111122,1111122,1111122' 
NDBC,ioos:station:NOAA.NDBC:FWYF1:1,2017-09-03T21:00:00Z,25.5910,-80.0970,43.9,5.1,70.0,5.7,'1111122,1111122,1111122' 
NDBC,ioos:station:NOAA.NDBC:FWYF1:1,2017-09-03T22:00:00Z,25.5910,-80.0970,43.9,6.2,70.0,6.7,'1111122,1111122,1111122' 
NDBC,ioos:station:NOAA.NDBC:FWYF1:1,2017-09-03T23:00:00Z,25.5910,-80.0970,43.9,5.1,60.0,5.7,'1111122,1111122,1111122' 
NDBC,ioos:station:NOAA.NDBC:FWYF1:1,2017-09-04T00:00:00Z,25.5910,-80.0970,43.9,5.1,30.0,5.1,'1111122,1111122,1111122' 
NDBC,ioos:station:NOAA.NDBC:FWYF1:1,2017-09-04T01:00:00Z,25.5910,-80.0970,43.9,4.6,50.0,4.6,'1111122,1111122,1111122' 
NDBC,ioos:station:NOAA.NDBC:FWYF1:1,2017-09-04T02:00:00Z,25.5910,-80.0970,43.9,5.7,70.0,6.7,'1111122,1111122,1111122' 
NDBC,ioos:station:NOAA.NDBC:FWYF1:1,2017-09-04T03:00:00Z,25.5910,-80.0970,43.9,6.2,80.0,7.2,'1111122,1111122,1111122' 
NDBC,ioos:station:NOAA.NDBC:FWYF1:1,2017-09-04T04:00:00Z,25.5910,-80.0970,43.9,6.2,70.0,7.2,'1111122,1111122,1111122' 
NDBC,ioos:station:NOAA.NDBC:FWYF1:1,2017-09-04T05:00:00Z,25.5910,-80.0970,43.9,5.7,70.0,6.2,'1111122,1111122,1111122' 
NDBC,ioos:station:NOAA.NDBC:FWYF1:1,2017-09-04T06:00:00Z,25.5910,-80.0970,43.9,5.7,70.0,5.7,'1111122,1111122,1111122' 
NDBC,ioos:station:NOAA.NDBC:FWYF1:1,2017-09-04T07:00:00Z,25.5910,-80.0970,43.9,4.6,70.0,5.1,'1111122,1111122,1111122' 
NDBC,ioos:station:NOAA.NDBC:FWYF1:1,2017-09-04T08:00:00Z,25.5910,-80.0970,43.9,4.6,70.0,5.1,'1111122,1111122,1111122' 
NDBC,ioos:station:NOAA.NDBC:FWYF1:1,2017-09-04T09:00:00Z,25.5910,-80.0970,43.9,5.1,70.0,5.7,'1111122,1111122,1111122' 
NDBC,ioos:station:NOAA.NDBC:FWYF1:1,2017-09-04T10:00:00Z,25.5910,-80.0970,43.9,5.7,50.0,6.2,'1111122,1111122,1111122' 
NDBC,ioos:station:NOAA.NDBC:FWYF1:1,2017-09-04T11:00:00Z,25.5910,-80.0970,43.9,5.1,70.0,5.7,'1111122,1111122,1111122' 
NDBC,ioos:station:NOAA.NDBC:FWYF1:1,2017-09-04T12:00:00Z,25.5910,-80.0970,43.9,6.2,70.0,6.7,'1111122,1111122,1111122' 
NDBC,ioos:station:NOAA.NDBC:FWYF1:1,2017-09-04T13:00:00Z,25.5910,-80.0970,43.9,7.2,70.0,7.7,'1111122,1111122,1111122' 
NDBC,ioos:station:NOAA.NDBC:FWYF1:1,2017-09-04T14:00:00Z,25.5910,-80.0970,43.9,6.2,70.0,7.2,'1111122,1111122,1111122' 
NDBC,ioos:station:NOAA.NDBC:FWYF1:1,2017-09-04T15:00:00Z,25.5910,-80.0970,43.9,6.2,70.0,6.7,'1111122,1111122,1111122' 
NDBC,ioos:station:NOAA.NDBC:FWYF1:1,2017-09-04T16:00:00Z,25.5910,-80.0970,43.9,5.7,60.0,6.7,'1111122,1111122,1111122' 
NDBC,ioos:station:NOAA.NDBC:FWYF1:1,2017-09-04T17:00:00Z,25.5910,-80.0970,43.9,5.1,50.0,5.7,'1111122,1111122,1111122' 
NDBC,ioos:station:NOAA.NDBC:FWYF1:1,2017-09-04T18:00:00Z,25.5910,-80.0970,43.9,5.1,90.0,5.7,'1111122,1111122,1111122' 
NDBC,ioos:station:NOAA.NDBC:FWYF1:1,2017-09-04T19:00:00Z,25.5910,-80.0970,43.9,4.6,80.0,5.1,'1111122,1111122,1111122' 
NDBC,ioos:station:NOAA.NDBC:FWYF1:1,2017-09-04T20:00:00Z,25.5910,-80.0970,43.9,7.7,60.0,8.8,'1111122,1111122,1111122' 
NDBC,ioos:station:NOAA.NDBC:FWYF1:1,2017-09-04T21:00:00Z,25.5910,-80.0970,43.9,5.7,40.0,5.7,'1111122,1111122,1111122' 
NDBC,ioos:station:NOAA.NDBC:FWYF1:1,2017-09-04T22:00:00Z,25.5910,-80.0970,43.9,6.2,70.0,7.2,'1111122,1111122,1111122' 
NDBC,ioos:station:NOAA.NDBC:FWYF1:1,2017-09-05T00:00:00Z,25.5910,-80.0970,43.9,6.7,60.0,7.2,'1111122,1111122,1111122' 
NDBC,ioos:station:NOAA.NDBC:FWYF1:1,2017-09-05T01:00:00Z,25.5910,-80.0970,43.9,7.2,70.0,7.7,'1111122,1111122,1111122' 
NDBC,ioos:station:NOAA.NDBC:FWYF1:1,2017-09-05T02:00:00Z,25.5910,-80.0970,43.9,7.2,70.0,7.7,'1111122,1111122,1111122' 
NDBC,ioos:station:NOAA.NDBC:FWYF1:1,2017-09-05T03:00:00Z,25.5910,-80.0970,43.9,6.7,80.0,7.2,'1111122,1111122,1111122' 
NDBC,ioos:station:NOAA.NDBC:FWYF1:1,2017-09-05T04:00:00Z,25.5910,-80.0970,43.9,7.7,80.0,8.2,'1111122,1111122,1111122' 
NDBC,ioos:station:NOAA.NDBC:FWYF1:1,2017-09-05T05:00:00Z,25.5910,-80.0970,43.9,6.7,80.0,7.2,'1111122,1111122,1111122' 
NDBC,ioos:station:NOAA.NDBC:FWYF1:1,2017-09-05T06:00:00Z,25.5910,-80.0970,43.9,6.7,80.0,6.7,'1111122,1111122,1111122' 
NDBC,ioos:station:NOAA.NDBC:FWYF1:1,2017-09-05T07:00:00Z,25.5910,-80.0970,43.9,6.2,100.0,6.7,'1111122,1111122,1111122' 
NDBC,ioos:station:NOAA.NDBC:FWYF1:1,2017-09-05T08:00:00Z,25.5910,-80.0970,43.9,5.7,100.0,6.2,'1111122,1111122,1111122' 
NDBC,ioos:station:NOAA.NDBC:FWYF1:1,2017-09-05T09:00:00Z,25.5910,-80.0970,43.9,4.1,80.0,5.7,'1111122,1111122,1111122' 
NDBC,ioos:station:NOAA.NDBC:FWYF1:1,2017-09-05T10:00:00Z,25.5910,-80.0970,43.9,4.1,80.0,4.6,'1111122,1111122,1111122' 
NDBC,ioos:station:NOAA.NDBC:FWYF1:1,2017-09-05T11:00:00Z,25.5910,-80.0970,43.9,4.1,80.0,4.1,'1111122,1111122,1111122' 
NDBC,ioos:station:NOAA.NDBC:FWYF1:1,2017-09-05T12:00:00Z,25.5910,-80.0970,43.9,8.2,100.0,9.3,'1111122,1111122,1111122' 
NDBC,ioos:station:NOAA.NDBC:FWYF1:1,2017-09-05T13:00:00Z,25.5910,-80.0970,43.9,3.6,100.0,4.6,'1111122,1111122,1111122' 
NDBC,ioos:station:NOAA.NDBC:FWYF1:1,2017-09-05T14:00:00Z,25.5910,-80.0970,43.9,5.1,100.0,5.7,'1111122,1111122,1111122' 
NDBC,ioos:station:NOAA.NDBC:FWYF1:1,2017-09-05T15:00:00Z,25.5910,-80.0970,43.9,2.6,80.0,3.1,'1111122,1111122,1111122' 
NDBC,ioos:station:NOAA.NDBC:FWYF1:1,2017-09-05T16:00:00Z,25.5910,-80.0970,43.9,2.6,90.0,2.6,'1111122,1111122,1111122' 
NDBC,ioos:station:NOAA.NDBC:FWYF1:1,2017-09-05T17:00:00Z,25.5910,-80.0970,43.9,4.1,90.0,4.6,'1111122,1111122,1111122' 
NDBC,ioos:station:NOAA.NDBC:FWYF1:1,2017-09-05T18:00:00Z,25.5910,-80.0970,43.9,3.6,90.0,4.1,'1111122,1111122,1111122' 
NDBC,ioos:station:NOAA.NDBC:FWYF1:1,2017-09-05T19:00:00Z,25.5910,-80.0970,43.9,4.6,80.0,5.7,'1111122,1111122,1111122' 
NDBC,ioos:station:NOAA.NDBC:FWYF1:1,2017-09-05T20:00:00Z,25.5910,-80.0970,43.9,5.7,60.0,6.2,'1111122,1111122,1111122' 
NDBC,ioos:station:NOAA.NDBC:FWYF1:1,2017-09-05T21:00:00Z,25.5910,-80.0970,43.9,5.7,60.0,6.7,'1111122,1111122,1111122' 
NDBC,ioos:station:NOAA.NDBC:FWYF1:1,2017-09-05T22:00:00Z,25.5910,-80.0970,43.9,6.2,50.0,6.7,'1111122,1111122,1111122' 
NDBC,ioos:station:NOAA.NDBC:FWYF1:1,2017-09-05T23:00:00Z,25.5910,-80.0970,43.9,8.2,80.0,9.8,'1111122,1111122,1111122' 
NDBC,ioos:station:NOAA.NDBC:FWYF1:1,2017-09-06T00:00:00Z,25.5910,-80.0970,43.9,6.2,60.0,7.2,'1111122,1111122,1111122' 
NDBC,ioos:station:NOAA.NDBC:FWYF1:1,2017-09-06T01:00:00Z,25.5910,-80.0970,43.9,5.7,80.0,6.2,'1111122,1111122,1111122' 
NDBC,ioos:station:NOAA.NDBC:FWYF1:1,2017-09-07T15:00:00Z,25.5910,-80.0970,43.9,1.5,80.0,1.5,'1111122,1111122,1111122' 
NDBC,ioos:station:NOAA.NDBC:FWYF1:1,2017-09-07T16:00:00Z,25.5910,-80.0970,43.9,2.6,100.0,2.6,'1111122,1111122,1111122' 
NDBC,ioos:station:NOAA.NDBC:FWYF1:1,2017-09-07T17:00:00Z,25.5910,-80.0970,43.9,2.1,80.0,2.6,'1111122,1111122,1111122' 
NDBC,ioos:station:NOAA.NDBC:FWYF1:1,2017-09-07T18:00:00Z,25.5910,-80.0970,43.9,3.1,80.0,3.6,'1111122,1111122,1111122' 
NDBC,ioos:station:NOAA.NDBC:FWYF1:1,2017-09-07T19:00:00Z,25.5910,-80.0970,43.9,4.1,80.0,4.1,'1111122,1111122,1111122' 
NDBC,ioos:station:NOAA.NDBC:FWYF1:1,2017-09-07T20:00:00Z,25.5910,-80.0970,43.9,4.1,60.0,4.6,'1111122,1111122,1111122' 
NDBC,ioos:station:NOAA.NDBC:FWYF1:1,2017-09-07T21:00:00Z,25.5910,-80.0970,43.9,4.6,90.0,5.1,'1111122,1111122,1111122' 
NDBC,ioos:station:NOAA.NDBC:FWYF1:1,2017-09-07T22:00:00Z,25.5910,-80.0970,43.9,5.7,70.0,5.7,'1111122,1111122,1111122' 
NDBC,ioos:station:NOAA.NDBC:FWYF1:1,2017-09-07T23:00:00Z,25.5910,-80.0970,43.9,5.1,70.0,5.7,'1111122,1111122,1111122' 
NDBC,ioos:station:NOAA.NDBC:FWYF1:1,2017-09-08T00:00:00Z,25.5910,-80.0970,43.9,6.2,50.0,6.7,'1111122,1111122,1111122' 
NDBC,ioos:station:NOAA.NDBC:FWYF1:1,2017-09-08T01:00:00Z,25.5910,-80.0970,43.9,6.7,60.0,7.2,'1111122,1111122,1111122' 
NDBC,ioos:station:NOAA.NDBC:FWYF1:1,2017-09-08T02:00:00Z,25.5910,-80.0970,43.9,6.7,60.0,7.2,'1111122,1111122,1111122' 
NDBC,ioos:station:NOAA.NDBC:FWYF1:1,2017-09-08T03:00:00Z,25.5910,-80.0970,43.9,7.2,50.0,7.7,'1111122,1111122,1111122' 
NDBC,ioos:station:NOAA.NDBC:FWYF1:1,2017-09-08T04:00:00Z,25.5910,-80.0970,43.9,6.7,60.0,6.7,'1111122,1111122,1111122' 
NDBC,ioos:station:NOAA.NDBC:FWYF1:1,2017-09-08T05:00:00Z,25.5910,-80.0970,43.9,5.1,60.0,5.1,'1111122,1111122,1111122' 
NDBC,ioos:station:NOAA.NDBC:FWYF1:1,2017-09-08T06:00:00Z,25.5910,-80.0970,43.9,6.2,50.0,6.7,'1111122,1111122,1111122' 
NDBC,ioos:station:NOAA.NDBC:FWYF1:1,2017-09-08T07:00:00Z,25.5910,-80.0970,43.9,8.2,60.0,8.8,'1111122,1111122,1111122' 
NDBC,ioos:station:NOAA.NDBC:FWYF1:1,2017-09-08T08:00:00Z,25.5910,-80.0970,43.9,9.3,60.0,10.3,'1111122,1111122,1111122' 
NDBC,ioos:station:NOAA.NDBC:FWYF1:1,2017-09-08T09:00:00Z,25.5910,-80.0970,43.9,9.3,50.0,9.8,'1111122,1111122,1111122' 
NDBC,ioos:station:NOAA.NDBC:FWYF1:1,2017-09-08T10:00:00Z,25.5910,-80.0970,43.9,9.8,50.0,10.3,'1111122,1111122,1111122' 
NDBC,ioos:station:NOAA.NDBC:FWYF1:1,2017-09-08T11:00:00Z,25.5910,-80.0970,43.9,8.8,40.0,9.8,'1111122,1111122,1111122' 
NDBC,ioos:station:NOAA.NDBC:FWYF1:1,2017-09-08T12:00:00Z,25.5910,-80.0970,43.9,9.3,40.0,10.3,'1111122,1111122,1111122' 
NDBC,ioos:station:NOAA.NDBC:FWYF1:1,2017-09-08T13:00:00Z,25.5910,-80.0970,43.9,10.3,40.0,10.8,'1111122,1111122,1111122' 
NDBC,ioos:station:NOAA.NDBC:FWYF1:1,2017-09-08T14:00:00Z,25.5910,-80.0970,43.9,10.8,50.0,11.8,'1111122,1111122,1111122' 
NDBC,ioos:station:NOAA.NDBC:FWYF1:1,2017-09-08T15:00:00Z,25.5910,-80.0970,43.9,10.3,50.0,10.8,'1111122,1111122,1111122' 
NDBC,ioos:station:NOAA.NDBC:FWYF1:1,2017-09-08T16:00:00Z,25.5910,-80.0970,43.9,11.3,40.0,11.8,'1111122,1111122,1111122' 
NDBC,ioos:station:NOAA.NDBC:FWYF1:1,2017-09-08T17:00:00Z,25.5910,-80.0970,43.9,11.3,50.0,11.8,'1111122,1111122,1111122' 
NDBC,ioos:station:NOAA.NDBC:FWYF1:1,2017-09-08T18:00:00Z,25.5910,-80.0970,43.9,9.8,40.0,10.8,'1111122,1111122,1111122' 
NDBC,ioos:station:NOAA.NDBC:FWYF1:1,2017-09-08T19:00:00Z,25.5910,-80.0970,43.9,10.8,40.0,12.4,'1111122,1111122,1111122' 
NDBC,ioos:station:NOAA.NDBC:FWYF1:1,2017-09-08T20:00:00Z,25.5910,-80.0970,43.9,12.4,40.0,12.9,'1111122,1111122,1111122' 
NDBC,ioos:station:NOAA.NDBC:FWYF1:1,2017-09-08T21:00:00Z,25.5910,-80.0970,43.9,10.3,30.0,10.3,'1111122,1111122,1111122' 
NDBC,ioos:station:NOAA.NDBC:FWYF1:1,2017-09-08T22:00:00Z,25.5910,-80.0970,43.9,11.3,30.0,13.4,'1111122,1111122,1111122' 
NDBC,ioos:station:NOAA.NDBC:FWYF1:1,2017-09-08T23:00:00Z,25.5910,-80.0970,43.9,13.4,40.0,14.4,'1111122,1111122,1111122' 
NDBC,ioos:station:NOAA.NDBC:FWYF1:1,2017-09-09T00:00:00Z,25.5910,-80.0970,43.9,12.9,30.0,14.9,'1111122,1111122,1111122' 
NDBC,ioos:station:NOAA.NDBC:FWYF1:1,2017-09-09T01:00:00Z,25.5910,-80.0970,43.9,12.9,30.0,13.9,'1111122,1111122,1111122' 
NDBC,ioos:station:NOAA.NDBC:FWYF1:1,2017-09-09T02:00:00Z,25.5910,-80.0970,43.9,14.4,30.0,14.9,'1111122,1111122,1111122' 
NDBC,ioos:station:NOAA.NDBC:FWYF1:1,2017-09-09T03:00:00Z,25.5910,-80.0970,43.9,14.9,30.0,16.0,'1111122,1111122,1111122' 
NDBC,ioos:station:NOAA.NDBC:FWYF1:1,2017-09-09T04:00:00Z,25.5910,-80.0970,43.9,14.4,40.0,17.0,'1111122,1111122,1111122' 
NDBC,ioos:station:NOAA.NDBC:FWYF1:1,2017-09-09T05:00:00Z,25.5910,-80.0970,43.9,15.4,30.0,17.5,'1111122,1111122,1111122' 
NDBC,ioos:station:NOAA.NDBC:FWYF1:1,2017-09-09T06:00:00Z,25.5910,-80.0970,43.9,12.4,40.0,12.9,'1111122,1111122,1111122' 
NDBC,ioos:station:NOAA.NDBC:FWYF1:1,2017-09-09T07:00:00Z,25.5910,-80.0970,43.9,16.5,50.0,19.0,'1111122,1111122,1111122' 
NDBC,ioos:station:NOAA.NDBC:FWYF1:1,2017-09-09T08:00:00Z,25.5910,-80.0970,43.9,16.5,50.0,19.0,'1111122,1111122,1111122' 
NDBC,ioos:station:NOAA.NDBC:FWYF1:1,2017-09-09T09:00:00Z,25.5910,-80.0970,43.9,11.8,80.0,13.4,'1111122,1111122,1111122' 
NDBC,ioos:station:NOAA.NDBC:FWYF1:1,2017-09-09T10:00:00Z,25.5910,-80.0970,43.9,11.8,60.0,16.0,'1111122,1111122,1111122' 
NDBC,ioos:station:NOAA.NDBC:FWYF1:1,2017-09-09T11:00:00Z,25.5910,-80.0970,43.9,18.5,80.0,20.6,'1111122,1111122,1111122' 
NDBC,ioos:station:NOAA.NDBC:FWYF1:1,2017-09-09T12:00:00Z,25.5910,-80.0970,43.9,15.4,50.0,17.5,'1111122,1111122,1111122' 
NDBC,ioos:station:NOAA.NDBC:FWYF1:1,2017-09-09T13:00:00Z,25.5910,-80.0970,43.9,18.5,90.0,21.1,'1111122,1111122,1111122' 
NDBC,ioos:station:NOAA.NDBC:FWYF1:1,2017-09-09T14:00:00Z,25.5910,-80.0970,43.9,19.0,60.0,20.6,'1111122,1111122,1111122' 
NDBC,ioos:station:NOAA.NDBC:FWYF1:1,2017-09-09T15:00:00Z,25.5910,-80.0970,43.9,19.0,90.0,22.1,'1111122,1111122,1111122' 
NDBC,ioos:station:NOAA.NDBC:FWYF1:1,2017-09-09T16:00:00Z,25.5910,-80.0970,43.9,20.1,90.0,30.4,'1111122,1111122,1111122' 
NDBC,ioos:station:NOAA.NDBC:FWYF1:1,2017-09-09T17:00:00Z,25.5910,-80.0970,43.9,17.5,60.0,19.6,'1111122,1111122,1111122' 
NDBC,ioos:station:NOAA.NDBC:FWYF1:1,2017-09-09T18:00:00Z,25.5910,-80.0970,43.9,20.6,70.0,22.1,'1111122,1111122,1111122' 
NDBC,ioos:station:NOAA.NDBC:FWYF1:1,2017-09-09T19:00:00Z,25.5910,-80.0970,43.9,21.1,60.0,23.7,'1111122,1111122,1111122' 
NDBC,ioos:station:NOAA.NDBC:FWYF1:1,2017-09-09T20:00:00Z,25.5910,-80.0970,43.9,23.7,70.0,25.2,'1111122,1111122,1111122' 
NDBC,ioos:station:NOAA.NDBC:FWYF1:1,2017-09-09T21:00:00Z,25.5910,-80.0970,43.9,20.6,70.0,22.1,'1111122,1111122,1111122' 
NDBC,ioos:station:NOAA.NDBC:FWYF1:1,2017-09-09T22:00:00Z,25.5910,-80.0970,43.9,17.0,60.0,19.6,'1111122,1111122,1111122' 
NDBC,ioos:station:NOAA.NDBC:FWYF1:1,2017-09-09T23:00:00Z,25.5910,-80.0970,43.9,21.1,70.0,24.2,'1111122,1111122,1111122' 
NDBC,ioos:station:NOAA.NDBC:FWYF1:1,2017-09-10T00:00:00Z,25.5910,-80.0970,43.9,24.7,80.0,28.3,'1111122,1111122,1111122' 
NDBC,ioos:station:NOAA.NDBC:FWYF1:1,2017-09-10T01:00:00Z,25.5910,-80.0970,43.9,21.1,70.0,24.7,'1111122,1111122,1111122' 
NDBC,ioos:station:NOAA.NDBC:FWYF1:1,2017-09-10T02:00:00Z,25.5910,-80.0970,43.9,22.7,80.0,25.2,'1111122,1111122,1111122' 
NDBC,ioos:station:NOAA.NDBC:FWYF1:1,2017-09-10T03:00:00Z,25.5910,-80.0970,43.9,25.2,80.0,28.8,'1111122,1111122,1111122' 
NDBC,ioos:station:NOAA.NDBC:FWYF1:1,2017-09-10T04:00:00Z,25.5910,-80.0970,43.9,24.2,80.0,27.8,'1111122,1111122,1111122' 
NDBC,ioos:station:NOAA.NDBC:FWYF1:1,2017-09-10T05:00:00Z,25.5910,-80.0970,43.9,24.7,80.0,27.3,'1111122,1111122,1111122' 
NDBC,ioos:station:NOAA.NDBC:FWYF1:1,2017-09-10T06:00:00Z,25.5910,-80.0970,43.9,28.8,90.0,30.9,'1111122,1111122,1111122' 
NDBC,ioos:station:NOAA.NDBC:FWYF1:1,2017-09-10T07:00:00Z,25.5910,-80.0970,43.9,24.2,90.0,26.8,'1111122,1111122,1111122' 
NDBC,ioos:station:NOAA.NDBC:FWYF1:1,2017-09-10T08:00:00Z,25.5910,-80.0970,43.9,25.7,100.0,31.4,'1111122,1111122,1111122' 
NDBC,ioos:station:NOAA.NDBC:FWYF1:1,2017-09-10T09:00:00Z,25.5910,-80.0970,43.9,28.8,100.0,35.0,'1111122,1111122,1111122' 
NDBC,ioos:station:NOAA.NDBC:FWYF1:1,2017-09-10T10:00:00Z,25.5910,-80.0970,43.9,31.4,90.0,37.6,'1111122,1111122,1111122' 
NDBC,ioos:station:NOAA.NDBC:FWYF1:1,2017-09-10T11:00:00Z,25.5910,-80.0970,43.9,32.4,110.0,36.6,'1111122,1111122,1111122' 
NDBC,ioos:station:NOAA.NDBC:FWYF1:1,2017-09-10T12:00:00Z,25.5910,-80.0970,43.9,31.9,100.0,39.1,'1111122,1111122,1111122' 
NDBC,ioos:station:NOAA.NDBC:FWYF1:1,2017-09-10T13:00:00Z,25.5910,-80.0970,43.9,30.4,110.0,36.6,'1111122,1111122,1111122' 
NDBC,ioos:station:NOAA.NDBC:FWYF1:1,2017-09-10T14:00:00Z,25.5910,-80.0970,43.9,33.5,110.0,39.1,'1111122,1111122,1111122' 
NDBC,ioos:station:NOAA.NDBC:FWYF1:1,2017-09-10T15:00:00Z,25.5910,-80.0970,43.9,32.9,110.0,37.1,'1111122,1111122,1111122' 
NDBC,ioos:station:NOAA.NDBC:FWYF1:1,2017-09-10T16:00:00Z,25.5910,-80.0970,43.9,34.5,120.0,41.2,'1111122,1111122,1111122' 
NDBC,ioos:station:NOAA.NDBC:FWYF1:1,2017-09-10T17:00:00Z,25.5910,-80.0970,43.9,37.1,120.0,41.7,'1111122,1111122,1111122' 
NDBC,ioos:station:NOAA.NDBC:FWYF1:1,2017-09-10T18:00:00Z,25.5910,-80.0970,43.9,36.0,130.0,41.7,'1111122,1111122,1111122' 
NDBC,ioos:station:NOAA.NDBC:FWYF1:1,2017-09-10T19:00:00Z,25.5910,-80.0970,43.9,35.0,130.0,41.2,'1111122,1111122,1111122' 
NDBC,ioos:station:NOAA.NDBC:FWYF1:1,2017-09-10T20:00:00Z,25.5910,-80.0970,43.9,28.8,160.0,32.9,'1111122,1111122,1111122' 
NDBC,ioos:station:NOAA.NDBC:FWYF1:1,2017-09-10T21:00:00Z,25.5910,-80.0970,43.9,31.4,150.0,36.6,'1111122,1111122,1111122' 